Retour au catalogue

STARLINK-32522

ActifCommunicationsVLEO
NORAD 61981·PAYLOAD·🇺🇸 United States

Lancé Nov 14, 2024 depuis Cape Canaveral Space Force Station

Loading…

Prochains Passages (prochaines 24 heures)

TLE

FraisSource: CelesTrak SupGP

Époque: Sep 15, 2026, 03:06 UTC

1 61981C 24210Y   26258.12965278  .00025604  00000+0  92720-3 0  2584
2 61981  43.0025 189.9096 0001149 276.2154  62.6217 15.27572773    16

Suivez STARLINK-32522 en temps réel avec AllMySat

Download on the App Store